GW3506 Weather Reports


time (UTC)temp
C
wind
direction
speed
KPH
gust
KPH
rain 1hr
cm
rain 24hr
cm
rain mn
cm
humidity
%
barometer
mb
20260503034649 23 333 0.0 0.0 0.00 0.00 0.00 92 1013.8
20260503034146 23 333 0.0 0.0 0.00 0.00 0.00 92 1013.8
20260503033643 23 333 0.0 0.0 0.00 0.00 0.00 92 1013.8
20260503033140 23 334 0.0 0.0 0.00 0.00 0.00 92 1013.8
20260503032638 23 334 0.0 0.0 0.00 0.00 0.00 91 1013.8
20260503032137 23 334 0.0 0.0 0.00 0.00 0.00 92 1013.7
20260503031634 23 334 0.0 0.0 0.00 0.00 0.00 92 1013.7
20260503031132 23 334 0.0 0.0 0.00 0.00 0.00 92 1013.4
20260503030627 23 334 0.0 0.0 0.00 0.00 0.00 92 1013.1
20260503030124 23 334 1.6 1.6 0.00 0.00 0.00 92 1013.2
20260503025621 23 332 0.0 0.0 0.00 0.00 0.00 93 1013.4
20260503025119 23 331 0.0 0.0 0.00 0.00 0.00 93 1013.2
20260503024615 23 331 0.0 0.0 0.00 0.00 0.00 93 1013.4
20260503024112 23 331 0.0 0.0 0.00 0.00 0.00 92 1013.2
20260503023609 23 331 0.0 0.0 0.00 0.00 0.00 92 1013.1
20260503023106 23 331 3.2 3.2 0.00 0.00 0.00 92 1013.2
20260503022602 23 328 1.6 1.6 0.00 0.00 0.00 92 1013.1
20260503022057 23 327 3.2 3.2 0.00 0.00 0.00 91 1013.2
20260503021554 23 330 1.6 3.2 0.00 0.00 0.00 91 1013.3
20260503021051 23 323 3.2 4.8 0.00 0.00 0.00 90 1013.2
20260503020548 23 355 1.6 1.6 0.00 0.00 0.00 90 1013.3
20260503020045 24 331 9.7 11.3 0.00 0.00 0.00 89 1013.5
20260503015541 24 327 1.6 1.6 0.00 0.00 0.00 89 1013.4
20260503015039 25 307 8.0 12.9 0.00 0.00 0.00 88 1013.2
20260503014534 25 308 3.2 3.2 0.00 0.00 0.00 87 1013.2
20260503014033 25 297 3.2 3.2 0.00 0.00 0.00 86 1013.0
20260503013530 25 324 3.2 3.2 0.00 0.00 0.00 87 1013.3
20260503013027 26 316 3.2 4.8 0.00 0.00 0.00 87 1013.1
20260503012525 26 297 6.4 6.4 0.00 0.00 0.00 90 1012.9
20260503012021 26 206 1.6 1.6 0.00 0.00 0.00 90 1012.7
20260503011518 26 220 1.6 3.2 0.00 0.00 0.00 90 1012.8
20260503011015 26 210 0.0 0.0 0.00 0.00 0.00 90 1012.8
20260503010511 26 258 0.0 0.0 0.00 0.00 0.00 90 1012.7
20260503010009 26 218 0.0 1.6 0.00 0.00 0.00 89 1012.9
20260503005506 26 222 1.6 1.6 0.00 0.00 0.00 89 1012.5
20260503005003 26 253 0.0 1.6 0.00 0.00 0.00 89 1012.7
20260503004459 26 233 1.6 1.6 0.00 0.00 0.00 89 1012.7
20260503003957 26 223 0.0 0.0 0.00 0.00 0.00 89 1012.6
20260503003453 26 213 1.6 1.6 0.00 0.00 0.00 89 1012.6
20260503002950 26 218 3.2 3.2 0.00 0.00 0.00 89 1012.4
20260503002448 26 222 0.0 1.6 0.00 0.00 0.00 89 1012.4
20260503001944 26 202 3.2 3.2 0.00 0.00 0.00 89 1012.3
20260503001441 26 224 1.6 1.6 0.00 0.00 0.00 89 1012.3
20260503000938 26 241 3.2 3.2 0.00 0.00 0.00 89 1012.2
20260503000437 27 237 1.6 1.6 0.00 0.00 0.00 89 1012.4
20260502235933 27 209 1.6 1.6 0.00 0.00 0.00 87 1012.2
20260502235429 27 247 1.6 3.2 0.00 0.00 0.00 87 1012.0
20260502234927 27 219 1.6 4.8 0.00 0.00 0.00 87 1012.0
20260502234423 27 210 1.6 1.6 0.00 0.00 0.00 87 1012.2
20260502233920 27 229 1.6 3.2 0.00 0.00 0.00 86 1012.1
20260502233415 27 212 1.6 1.6 0.00 0.00 0.00 86 1012.0
20260502232913 27 235 0.0 0.0 0.00 0.00 0.00 85 1011.8
20260502232409 27 225 3.2 4.8 0.00 0.00 0.00 85 1012.1
20260502231906 27 197 3.2 3.2 0.00 0.00 0.00 85 1011.8
20260502231403 27 195 3.2 3.2 0.00 0.00 0.00 85 1011.8
20260502230900 27 277 1.6 1.6 0.00 0.00 0.00 85 1011.7
20260502230354 27 193 4.8 6.4 0.00 0.00 0.00 85 1011.8
20260502225850 27 239 1.6 3.2 0.00 0.00 0.00 85 1011.7
20260502225347 27 216 1.6 1.6 0.00 0.00 0.00 85 1011.6
20260502224844 27 216 3.2 6.4 0.00 0.00 0.00 85 1011.4
20260502224340 27 196 4.8 6.4 0.00 0.00 0.00 84 1011.2
20260502223837 28 205 4.8 4.8 0.00 0.00 0.00 84 1011.3
20260502223335 28 203 1.6 3.2 0.00 0.00 0.00 83 1011.1
20260502222832 28 207 1.6 1.6 0.00 0.00 0.00 83 1011.1
20260502222324 28 277 1.6 3.2 0.00 0.00 0.00 82 1011.2
20260502221820 28 235 3.2 4.8 0.00 0.00 0.00 82 1011.2
20260502221316 28 251 3.2 4.8 0.00 0.00 0.00 81 1011.3
20260502220813 28 227 1.6 3.2 0.00 0.00 0.00 81 1011.2
20260502220303 29 229 3.2 4.8 0.00 0.00 0.00 79 1011.3
20260502215800 29 229 4.8 6.4 0.00 0.00 0.00 78 1011.3
20260502215257 29 259 3.2 3.2 0.00 0.00 0.00 80 1011.1
20260502214754 29 192 4.8 4.8 0.00 0.00 0.00 77 1011.1
20260502214251 29 238 4.8 6.4 0.00 0.00 0.00 77 1011.0
20260502213748 29 142 8.0 11.3 0.00 0.00 0.00 77 1010.9
20260502213245 30 134 11.3 16.1 0.00 0.00 0.00 77 1010.9
20260502212744 30 200 8.0 11.3 0.00 0.00 0.00 76 1010.9
20260502212242 30 256 4.8 6.4 0.00 0.00 0.00 76 1010.9
20260502211737 30 213 6.4 9.7 0.00 0.00 0.00 76 1011.2
20260502211235 30 206 8.0 11.3 0.00 0.00 0.00 75 1010.9
20260502210732 30 223 9.7 12.9 0.00 0.00 0.00 75 1010.7
20260502210229 30 310 4.8 9.7 0.00 0.00 0.00 76 1010.7
20260502205726 30 204 8.0 11.3 0.00 0.00 0.00 75 1010.7
20260502205222 30 195 3.2 4.8 0.00 0.00 0.00 77 1010.6
20260502204720 30 149 9.7 11.3 0.00 0.00 0.00 74 1010.6
20260502204217 30 198 4.8 6.4 0.00 0.00 0.00 76 1010.6
20260502203715 30 170 9.7 11.3 0.00 0.00 0.00 74 1010.6
20260502203212 30 195 4.8 6.4 0.00 0.00 0.00 73 1010.9
20260502202706 30 162 8.0 11.3 0.00 0.00 0.00 74 1010.7
20260502202205 30 211 4.8 4.8 0.00 0.00 0.00 75 1010.8
20260502201702 31 219 4.8 4.8 0.00 0.00 0.00 72 1010.8
20260502201158 30 224 3.2 4.8 0.00 0.00 0.00 71 1010.5
20260502200654 30 196 6.4 9.7 0.00 0.00 0.00 74 1010.9
20260502200151 31 209 3.2 4.8 0.00 0.00 0.00 71 1010.7
20260502195649 31 234 3.2 6.4 0.00 0.00 0.00 73 1010.7
20260502195145 31 180 4.8 6.4 0.00 0.00 0.00 70 1010.8
20260502194642 31 214 4.8 4.8 0.00 0.00 0.00 71 1010.9
20260502194139 31 213 4.8 4.8 0.00 0.00 0.00 72 1011.0
20260502193635 31 243 8.0 9.7 0.00 0.00 0.00 72 1011.0
20260502193132 31 194 6.4 9.7 0.00 0.00 0.00 72 1010.9
20260502192627 31 213 6.4 9.7 0.00 0.00 0.00 73 1011.2
20260502192125 30 200 9.7 11.3 0.00 0.00 0.00 73 1010.9
20260502191622 31 223 8.0 9.7 0.00 0.00 0.00 71 1011.1
20260502191120 31 193 8.0 11.3 0.00 0.00 0.00 70 1011.3
20260502190617 31 237 3.2 4.8 0.00 0.00 0.00 70 1011.2
20260502190115 31 222 3.2 3.2 0.00 0.00 0.00 71 1011.3
20260502185609 31 202 4.8 9.7 0.00 0.00 0.00 70 1011.5
20260502185106 31 230 3.2 4.8 0.00 0.00 0.00 71 1011.4
20260502184602 31 192 4.8 6.4 0.00 0.00 0.00 72 1011.4
20260502184057 31 230 6.4 6.4 0.00 0.00 0.00 72 1011.5
20260502183554 31 213 4.8 6.4 0.00 0.00 0.00 73 1011.5
20260502183050 31 126 4.8 6.4 0.00 0.00 0.00 73 1011.7
20260502182546 31 176 4.8 4.8 0.00 0.00 0.00 73 1011.4
20260502182041 31 202 8.0 9.7 0.00 0.00 0.00 71 1011.5
20260502181534 31 218 4.8 6.4 0.00 0.00 0.00 71 1011.4
20260502181032 31 210 11.3 12.9 0.00 0.00 0.00 71 1011.6
20260502180529 31 210 8.0 9.7 0.00 0.00 0.00 75 1011.6
20260502170442 30 152 4.8 6.4 0.00 0.00 0.00 78 1012.0
20260502163925 30 196 9.7 12.9 0.00 0.00 0.00 80 1012.0
20260502163421 30 248 4.8 6.4 0.00 0.00 0.00 78 1012.0
20260502162919 30 202 6.4 12.9 0.00 0.00 0.00 78 1012.1
20260502162415 30 226 6.4 6.4 0.00 0.00 0.00 78 1012.0
20260502161912 30 189 3.2 4.8 0.00 0.00 0.00 79 1012.1
20260502161408 30 183 4.8 11.3 0.00 0.00 0.00 79 1012.0
20260502160907 30 214 4.8 6.4 0.00 0.00 0.00 78 1012.1
20260502160405 30 200 3.2 4.8 0.00 0.00 0.00 81 1012.2
20260502152340 30 245 4.8 6.4 0.00 0.00 0.00 81 1012.1
20260502151838 30 101 6.4 9.7 0.00 0.00 0.00 80 1012.3
20260502151334 30 246 8.0 9.7 0.00 0.00 0.00 80 1012.3
20260502150832 30 176 3.2 3.2 0.00 0.00 0.00 81 1012.2
20260502150328 30 218 6.4 9.7 0.00 0.00 0.00 81 1012.1
20260502130716 28 228 9.7 12.9 0.00 0.00 0.00 85 1011.2
20260502130214 28 108 6.4 9.7 0.00 0.00 0.00 84 1011.1
20260502123700 28 218 4.8 9.7 0.00 0.00 0.00 83 1011.0
20260502123156 27 182 3.2 3.2 0.00 0.00 0.00 82 1011.0
20260502122653 27 118 3.2 4.8 0.00 0.00 0.00 84 1010.9
20260502122149 27 114 3.2 4.8 0.00 0.00 0.00 83 1010.8
20260502121648 27 188 4.8 6.4 0.00 0.00 0.00 85 1010.8
20260502121145 27 202 6.4 9.7 0.00 0.00 0.00 85 1010.7
20260502120641 27 146 3.2 3.2 0.00 0.00 0.00 88 1010.9
20260502120139 27 207 3.2 3.2 0.00 0.00 0.00 90 1010.7
20260502115636 27 151 3.2 3.2 0.00 0.00 0.00 91 1010.6
20260502115132 27 205 4.8 6.4 0.00 0.00 0.00 91 1010.8
20260502114628 27 131 4.8 9.7 0.00 0.00 0.00 90 1010.6
20260502114126 27 174 3.2 3.2 0.00 0.00 0.00 90 1010.5
20260502113623 26 128 3.2 4.8 0.00 0.00 0.00 90 1010.8
20260502113121 26 179 3.2 6.4 0.00 0.00 0.00 90 1010.6
20260502112619 26 192 4.8 4.8 0.00 0.00 0.00 89 1010.6
20260502112116 26 223 3.2 3.2 0.00 0.00 0.00 89 1010.6
20260502111613 26 196 3.2 4.8 0.00 0.00 0.00 89 1010.5
20260502111111 26 188 3.2 3.2 0.00 0.00 0.00 88 1010.6
20260502110608 26 200 4.8 4.8 0.00 0.00 0.00 88 1010.6
20260502110106 26 130 4.8 6.4 0.00 0.00 0.00 89 1010.5
20260502105603 26 164 1.6 3.2 0.00 0.00 0.00 90 1010.5
20260502105100 26 215 3.2 4.8 0.00 0.00 0.00 90 1010.6
20260502104557 26 190 3.2 4.8 0.00 0.00 0.00 91 1010.5
20260502104054 26 125 3.2 4.8 0.00 0.00 0.00 91 1010.7
20260502103552 26 180 3.2 4.8 0.00 0.00 0.00 90 1010.6
20260502103050 26 206 4.8 6.4 0.00 0.00 0.00 90 1010.7
20260502102546 26 164 3.2 4.8 0.00 0.00 0.00 90 1010.7
20260502102043 26 193 3.2 3.2 0.00 0.00 0.00 89 1010.6
20260502101541 26 187 6.4 6.4 0.00 0.00 0.00 90 1010.6
20260502101039 26 158 6.4 11.3 0.00 0.00 0.00 90 1010.5
20260502100537 26 225 3.2 4.8 0.00 0.00 0.00 91 1010.6
20260502091512 26 170 3.2 3.2 0.00 0.00 0.00 92 1010.8
20260502091009 26 181 4.8 6.4 0.00 0.00 0.00 92 1010.7
20260502090506 26 111 3.2 4.8 0.00 0.00 0.00 93 1010.8
20260502071401 23 73 1.6 1.6 0.00 0.00 0.00 96 1010.8
20260502070859 23 73 1.6 1.6 0.00 0.00 0.00 96 1010.9
20260502070356 23 73 0.0 0.0 0.00 0.00 0.00 97 1010.8
20260502065855 23 73 0.0 0.0 0.00 0.00 0.00 96 1010.8
20260502065353 23 73 0.0 0.0 0.00 0.00 0.00 96 1010.7
20260502064850 23 73 0.0 0.0 0.00 0.00 0.00 96 1011.1
20260502064348 22 73 0.0 0.0 0.00 0.00 0.00 96 1010.9
20260502063845 22 73 0.0 0.0 0.00 0.00 0.00 96 1011.0
20260502063343 22 73 0.0 0.0 0.00 0.00 0.00 96 1010.7
20260502062840 22 73 1.6 3.2 0.00 0.00 0.00 96 1010.9
20260502062337 22 73 1.6 1.6 0.00 0.00 0.00 96 1010.9
20260502061836 22 73 1.6 1.6 0.00 0.00 0.00 96 1011.2
20260502061333 22 73 0.0 0.0 0.00 0.00 0.00 96 1011.4
20260502060829 22 74 1.6 3.2 0.00 0.00 0.00 95 1011.3
20260502060324 22 66 1.6 1.6 0.00 0.00 0.00 95 1011.4
20260502055822 22 68 0.0 1.6 0.00 0.00 0.00 95 1011.3
20260502055319 22 69 1.6 1.6 0.00 0.00 0.00 95 1011.6
20260502054814 22 68 0.0 0.0 0.00 0.00 0.00 95 1011.5
20260502054311 22 69 1.6 3.2 0.00 0.00 0.00 95 1011.2
20260502053808 22 77 1.6 1.6 0.00 0.00 0.00 95 1011.3
20260502053305 22 77 1.6 1.6 0.00 0.00 0.00 95 1011.4
20260502052803 22 74 1.6 1.6 0.00 0.00 0.00 94 1011.2
20260502052301 22 81 1.6 3.2 0.00 0.00 0.00 94 1011.2
20260502051758 23 182 1.6 1.6 0.00 0.00 0.00 94 1011.2
20260502051257 23 182 1.6 1.6 0.00 0.00 0.00 94 1011.3
20260502050752 23 200 0.0 0.0 0.00 0.00 0.00 93 1011.3
20260502050249 23 200 0.0 0.0 0.00 0.00 0.00 92 1011.1
20260502045746 23 204 0.0 0.0 0.00 0.00 0.00 91 1011.1
20260502045243 23 204 0.0 0.0 0.00 0.00 0.00 91 1011.1
20260502044740 23 204 0.0 0.0 0.00 0.00 0.00 91 1011.2
20260502044236 23 202 0.0 0.0 0.00 0.00 0.00 91 1011.2
20260502043733 23 210 0.0 0.0 0.00 0.00 0.00 91 1011.2
20260502043231 23 210 0.0 0.0 0.00 0.00 0.00 91 1011.2
20260502042730 23 204 0.0 0.0 0.00 0.00 0.00 91 1011.4
20260502042228 23 204 0.0 0.0 0.00 0.00 0.00 89 1011.4
20260502041725 23 204 0.0 0.0 0.00 0.00 0.00 88 1011.2
20260502041223 24 202 0.0 0.0 0.00 0.00 0.00 88 1011.2
20260502040720 24 202 0.0 0.0 0.00 0.00 0.00 87 1011.2
20260502040216 24 204 0.0 0.0 0.00 0.00 0.00 87 1011.3
20260502035712 24 204 0.0 0.0 0.00 0.00 0.00 87 1011.3
20260502035209 24 204 0.0 0.0 0.00 0.00 0.00 87 1011.2